Retour au catalogue

STARLINK-37370

ActifCommunicationsSSO
NORAD 68806·PAYLOAD·🇺🇸 United States

Lancé Apr 23, 2026 depuis Vandenberg Space Force Base

Loading…

Prochains Passages (prochaines 24 heures)

TLE

FraisSource: CelesTrak SupGP

Époque: Sep 14, 2026, 22:56 UTC

1 68806C 26089E   26257.95604167  .00090598  00000+0  28130-2 0  2576
2 68806  97.2846 103.7334 0001873  93.4500 328.5656 15.33385825    16

Suivez STARLINK-37370 en temps réel avec AllMySat

Download on the App Store